Location: Cataure
(10.0598°N, 67.2994°W)
Time: 06:38:02
(UTC+00:00)

Daily predictions for brighter satellites

Satellite Brightness Start Highest point End
(mag) Time Altitude Azimuth Time Altitude Azimuth Time Altitude Azimuth
Sich 1 4.0 23:05:56 10° NNE 23:09:35 27° E 23:13:12 10° SE
Cosmos 1733 4.1 23:07:33 10° NNE 23:10:31 26° E 23:13:30 10° SE
CZ-2C R/B 4.3 23:07:33 10° SSW 23:10:46 34° W 23:13:58 10° NW
Cosmos 1302 Rocket 4.3 23:06:00 10° NNW 23:11:13 73° WSW 23:16:28 10° S
Lacrosse 4 Rocket 2.7 23:07:39 10° NW 23:11:41 43° WSW 23:15:47 10° S
GPS 2-12 Rocket1 4.3 23:08:04 10° W 23:12:07 37° NNW 23:16:15 10° NE
ARIANE 5 R/B 4.4 19:51:07 10° W 23:14:03 57° S 23:21:39 10° ESE
Radarsat Rocket 4.3 23:09:18 10° SSE 23:15:27 69° ENE 23:22:23 10° N
FALCON 9 R/B 4.2 23:13:52 10° NNE 23:15:47 12° NE 23:18:24 10° ENE
Meteor 1-11 Rocket 3.9 23:12:56 10° N 23:18:52 70° E 23:24:47 10° SSE
USA 59 Rocket 1.8 23:13:26 10° NW 23:19:30 63° WSW 23:28:04 10° SSE
Cosmos 2279 Rocket 4.0 23:13:34 10° N 23:19:45 71° E 23:25:58 10° S
Cosmos 1340 2.4 23:18:55 10° N 23:22:11 56° E 23:25:28 10° SSE
Meteor 2-4 Rocket 3.8 23:18:10 10° S 23:24:06 78° E 23:29:58 10° N
NOAA 6 4.2 23:19:17 10° S 23:24:25 82° WSW 23:29:33 10° NNW
SAR-Lupe-2 3.6 23:21:19 10° S 23:24:52 83° W 23:28:25 10° NNW
Meteor PRIRODA 4.4 23:24:33 10° SE 23:27:29 28° ENE 23:30:24 10° NNE
SWIFT 3.0 23:26:13 10° SW 23:29:44 31° SSE 23:32:46 13° E
SL-8 R/B 3.8 23:25:37 10° NNW 23:30:18 61° NE 23:34:26 13° SE
Cosmos 2026 Rocket 4.3 23:24:51 10° SSE 23:30:44 44° E 23:36:32 10° NNE
Cosmos 1697 Rocket 3.9 23:28:05 10° NNE 23:32:31 24° ENE 23:35:59 14° ESE
Cosmos 1975 4.4 23:30:30 10° NE 23:32:59 16° E 23:34:17 14° ESE
ADEOS Rocket 4.0 23:26:57 10° S 23:33:41 62° WSW 23:41:05 10° NNW
Cosmos 1626 1.8 23:33:40 10° S 23:36:50 79° W 23:40:00 10° N
Meteor 2-10 3.9 23:33:04 10° N 23:38:05 86° E 23:43:08 10° S
CZ-4B R/B 3.9 23:37:42 15° SE 23:40:23 29° ENE 23:44:02 10° NNE
Cosmos 1328 Rocket 3.4 23:36:45 10° S 23:41:02 72° E 23:45:16 10° N
COSMOS 2406 4.1 23:36:01 10° SSW 23:41:36 55° WNW 23:47:13 10° N
USA 186 4.2 23:42:31 10° ENE 23:42:31 10° ENE 23:42:37 10° ENE
GPS 2-15 Rocket1 3.2 23:40:55 10° WSW 23:45:44 81° NNW 23:50:34 10° ENE
ATLAS CENTAUR R/B 1.1 23:45:52 10° S 23:49:12 44° ESE 23:52:29 10° NE
Cosmos 44 Rocket 3.3 23:44:41 10° NNW 23:49:21 75° WSW 23:53:32 12° SSE
Cosmos 1980 Rocket 3.9 23:48:29 10° NE 23:51:14 14° ENE 23:52:08 13° E
Cosmos 1743 Rocket 3.8 23:50:16 10° N 23:54:41 73° W 23:59:04 10° S
